Flag for Germany Weather past 2 weeks in Altenburg, Thuringia, Germany

Now
90 °F

Sunny.


Feels Like: 92 °F
Forecast: 61 / 87 °F
Wind: 2 mph from North

Location: Altenburg Nobitz

Current Time: Aug 31, 2015 at 1:22:50 PM

Latest Report: Aug 31, 2015 at 12:50 PM


Visibility: 10 mi

Pressure: 29.92 "Hg

Humidity: 46%

Dew point: 66 °F

Location of AltenburgLocation

Historic Weather in Altenburg — Graph

°F

Altenburg temperature yesterday

Maximum temperature yesterday: 90 °F (at 3:50 PM)
Minimum temperature yesterday: 66 °F (at 9:20 AM)
Average temperature yesterday: 82 °F

Past Weeks' High & Low Weather Summary

 TemperatureHumidityPressure
High90 °F (Aug 30, 3:50 PM)100% (Aug 17, 8:20 AM)30.27 "Hg (Aug 17, 8:20 AM)
Low57 °F (Aug 18, 8:20 AM)41% (Aug 30, 4:50 PM)29.71 "Hg (Aug 24, 3:20 PM)
Average69 °F80%30.01 "Hg
* Reported Aug 17 8:20 AM — Aug 31 11:50 AM, Altenburg, Weather by CustomWeather, © 2015

Note: Actual official high and low records may vary slightly from our data, if they occured in-between our weather recording intervals... More about our weather records

Advertising

Altenburg weather history for previous 24 hours

 ConditionsComfort  
Time TempWeatherWind HumidityBarometerVisibility
11:50 AM
Mon, Aug 31
86 °FSunny.2 mph52%29.92 "Hg10 mi
11:20 AM84 °FSunny.2 mph58%29.95 "Hg10 mi
10:50 AM81 °FPassing clouds.3 mph62%29.95 "HgN/A
10:20 AM81 °FPassing clouds.3 mph62%29.95 "HgN/A
9:50 AM79 °FSunny.1 mph65%29.95 "Hg10 mi
9:20 AM77 °FPassing clouds.2 mph69%29.95 "HgN/A
8:50 AM75 °FPassing clouds.1 mph78%29.95 "HgN/A
7:50 AM70 °FSunny.1 mph88%29.98 "Hg10 mi
7:20 AM66 °FClear.2 mph94%29.98 "Hg10 mi
6:50 PM
Sun, Aug 30
86 °FSunny.3 mph55%30.01 "Hg10 mi
6:20 PM88 °FSunny.5 mph49%30.01 "Hg10 mi
5:50 PM88 °FSunny.3 mph49%30.04 "Hg10 mi
5:20 PM90 °FSunny.5 mph43%30.04 "Hg10 mi
4:50 PM90 °FSunny.3 mph41%30.04 "Hg10 mi
4:20 PM90 °FSunny.3 mph46%30.04 "Hg10 mi
3:50 PM90 °FSunny.3 mph43%30.04 "Hg10 mi
3:20 PM88 °FPassing clouds.3 mph46%30.07 "HgN/A
2:50 PM88 °FPassing clouds.5 mph52%30.07 "HgN/A
2:20 PM86 °FPassing clouds.5 mph55%30.07 "HgN/A
1:50 PM84 °FPassing clouds.5 mph58%30.09 "HgN/A
Weather by CustomWeather, © 2015

See weather overviewHow to use our weather pages